Starlink 31381

operational
NORAD ID: 59469 Int'l Des: 2024-068 Owner: SPXS Country: US Constellation: starlink
LEOCIRCULAR

关于 Starlink 31381

正在加载描述...

实时位置

正在加载3D地球...

即将过境

高度历史

Altitude vs Time

uPlot chart will show altitude changes over time

两行轨道根数

1 59469U 24068Q 25305.61123771 -.00000086 00000-0 63867-5 0 9996
2 59469 43.0011 34.4756 0001208 255.3609 104.7108 15.27568845 88978
Epoch: Nov 1, 2025 • Age: 15 hours

当前状态

高度 486.0 km
速度 7.63 km/s
星下点 39.07°N, 30.06°E
发射日期 Apr 10, 2024
运行时间 1.5 years
类型 internet

技术详情

分类 Payload
质量 730.00 kg
干质量 700.00 kg
总质量 730.00 kg
长度 0.30 m
直径 4.10 m
跨度 29.00 m
形状 Box + pan
制造商 SPXS
平台类型 Starlink V2M
阶段状态 In Orbit
所有者/国家 SPXS/US

大型星座

Loading constellations...